Location: Gellin
(53.4498°N, 14.3207°E)
Time: 23:30:10
(UTC+00:00)

Cosmos 2333 Rocket - Pass Details

Date: 03 March 2021
Orbit: 837 x 864 km, 70.8° (Epoch: 12 April)

Event Time Altitude Azimuth Distance (km) Brightness Sun altitude
Rises 20:33:15 0° 236° (SW) 3,402 5.5 -32.8°
Reaches altitude 10° 20:35:48 10° 243° (WSW) 2,474 4.8 -33.1°
Maximum altitude 20:41:12 43° 314° (NW) 1,191 3.3 -33.7°
Drops below altitude 10° 20:46:40 10° 26° (NNE) 2,503 4.8 -34.3°
Sets 20:49:17 0° 33° (NNE) 3,447 5.5 -34.6°
